Location: Zihuatanejo
(17.6330°N, 101.5500°W)
Time: 09:21:11
(UTC-05:00)

N. Korean satellite - Visible Passes

Search period start: 20 October 2019 00:00
Search period end: 30 October 2019 00:00
Orbit: 455 x 508 km, 97.2° (Epoch: 19 October)

Date Brightness Start Highest point End Pass type
(mag) Time Alt. Az. Time Alt. Az. Time Alt. Az.
20 Oct 9.5 19:44:27 10° SSW 19:47:10 22° W 19:49:53 10° NW visible
22 Oct 9.1 06:57:00 10° NE 07:00:09 27° E 07:03:20 10° SSE visible
23 Oct 10.5 06:33:37 10° ENE 06:34:50 11° E 06:36:03 10° ESE visible
23 Oct 10.3 20:03:22 10° WSW 20:04:38 12° W 20:05:55 10° WNW visible
25 Oct 7.7 07:14:01 10° NNE 07:17:37 52° E 07:21:14 10° S visible
26 Oct 9.6 06:49:28 10° NE 06:52:19 21° E 06:55:10 10° SSE visible
27 Oct 9.9 19:54:37 10° SW 19:56:44 15° W 19:58:50 10° WNW visible
29 Oct 8.3 07:06:16 10° NNE 07:09:45 39° E 07:13:15 10° S visible
